Emporia, Virginia, United States (23847)
Lat: 36.69N, Lon: 77.54W
Wx Zone: VAZ087
Local Info
Past Weather Observations for Friday, March 27, 2015

NOTE: This archive is for the closest National Weather Service station to Emporia. Information may differ from the station used for current weather conditions.

Click here for Long-term Archive

Time Weather Temperature Dewpoint Humidity Pressure Winds Precip Visibility
23:55
Overcast
36°F / 2°C 36°F / 2°C 100% 29.83 in
(1010 mb)
Calm - 7SM
23:35
Overcast
36°F / 2°C 36°F / 2°C 100% 29.83 in
(1010 mb)
Calm - 7SM
23:15
Overcast
Fog And Mist
36°F / 2°C 36°F / 2°C 100% 29.83 in
(1010 mb)
Calm - 5SM
22:55
Overcast
Fog And Mist
36°F / 2°C 36°F / 2°C 100% 29.83 in
(1010 mb)
Calm - 5SM
22:35
Overcast
Fog And Mist
37°F / 3°C 36°F / 2°C 93% 29.83 in
(1010 mb)
Calm - 5SM
22:15
Mostly Cloudy
37°F / 3°C 36°F / 2°C 93% 29.83 in
(1010 mb)
Calm - 7SM
21:55
Overcast
37°F / 3°C 37°F / 3°C 100% 29.83 in
(1010 mb)
W 3.5 mph
(W 6 kph)
- 7SM
21:35
Overcast
37°F / 3°C 37°F / 3°C 100% 29.83 in
(1010 mb)
Calm - 7SM
21:15
Overcast
37°F / 3°C 37°F / 3°C 100% 29.83 in
(1010 mb)
WNW 3.5 mph
(WNW 6 kph)
- 7SM
20:55
Overcast
37°F / 3°C 37°F / 3°C 100% 29.83 in
(1010 mb)
W 3.5 mph
(W 6 kph)
- 7SM
20:35
Overcast
37°F / 3°C 37°F / 3°C 100% 29.83 in
(1010 mb)
Calm - 7SM
20:15
Overcast
37°F / 3°C 37°F / 3°C 100% 29.83 in
(1010 mb)
W 3.5 mph
(W 6 kph)
- 10SM
19:55
Overcast
37°F / 3°C 37°F / 3°C 100% 29.83 in
(1010 mb)
W 3.5 mph
(W 6 kph)
- 10SM
19:35
Overcast
37°F / 3°C 36°F / 2°C 93% 29.83 in
(1010 mb)
Calm - 10SM
19:15
Overcast
37°F / 3°C 36°F / 2°C 93% 29.83 in
(1010 mb)
Calm - 10SM
18:55
Overcast
Light Rain
37°F / 3°C 36°F / 2°C 93% 29.83 in
(1010 mb)
NNW 4.6 mph
(NNW 7 kph)
- 10SM
18:35
Overcast
Light Snow
37°F / 3°C 34°F / 1°C 87% 29.83 in
(1010 mb)
N 4.6 mph
(N 7 kph)
- 10SM
18:15
Overcast
39°F / 4°C 34°F / 1°C 81% 29.83 in
(1010 mb)
N 10.4 mph
(N 17 kph)
- 10SM
17:55
Overcast
39°F / 4°C 36°F / 2°C 87% 29.8 in
(1009 mb)
NNW 6.9 mph
(NNW 11 kph)
- 10SM
17:35
Overcast
Light Rain
39°F / 4°C 36°F / 2°C 87% 29.8 in
(1009 mb)
NNW 4.6 mph
(NNW 7 kph)
- 10SM
17:15
Overcast
39°F / 4°C 36°F / 2°C 87% 29.83 in
(1010 mb)
NW 5.8 mph
(NW 9 kph)
- 10SM
16:55
Overcast
39°F / 4°C 36°F / 2°C 87% 29.8 in
(1009 mb)
NW 6.9 mph
(NW 11 kph)
- 10SM
16:35
Overcast
39°F / 4°C 36°F / 2°C 87% 29.8 in
(1009 mb)
NNW 6.9 mph
(NNW 11 kph)
- 10SM
16:15
Overcast
Snow
41°F / 5°C 37°F / 3°C 87% 29.8 in
(1009 mb)
NW 10.4 mph
(NW 17 kph)
- 7SM
15:55
Overcast
41°F / 5°C 37°F / 3°C 87% 29.8 in
(1009 mb)
NNW 10.4 mph
(NNW 17 kph)
- 10SM
15:35
Overcast
Drizzle
41°F / 5°C 37°F / 3°C 87% 29.8 in
(1009 mb)
NNW 4.6 mph
(NNW 7 kph)
- 10SM
15:15
Overcast
Light Rain
41°F / 5°C 37°F / 3°C 87% 29.8 in
(1009 mb)
NNW 4.6 mph
(NNW 7 kph)
- 10SM
14:55
Overcast
Drizzle
41°F / 5°C 37°F / 3°C 87% 29.8 in
(1009 mb)
N 8.1 mph
(N 13 kph)
- 10SM
14:35
Overcast
41°F / 5°C 37°F / 3°C 87% 29.77 in
(1008 mb)
NNW 8.1 mph
(NNW 13 kph)
- 10SM
14:15
Overcast
41°F / 5°C 37°F / 3°C 87% 29.8 in
(1009 mb)
NNW 6.9 mph
(NNW 11 kph)
- 10SM
13:55
Overcast
41°F / 5°C 39°F / 4°C 93% 29.8 in
(1009 mb)
NNW 12.7 mph
(NNW 20 kph)
- 10SM
13:35
Overcast
41°F / 5°C 39°F / 4°C 93% 29.8 in
(1009 mb)
NNW 8.1 mph
(NNW 13 kph)
- 10SM
13:15
Overcast
41°F / 5°C 39°F / 4°C 93% 29.8 in
(1009 mb)
NNW 10.4 mph
(NNW 17 kph)
- 10SM
12:55
Overcast
Light Snow
41°F / 5°C 41°F / 5°C 100% 29.8 in
(1009 mb)
N 10.4 mph
(N 17 kph)
0.02 in
(0.51 mm)
10SM
12:35
Overcast
Light Rain
41°F / 5°C 39°F / 4°C 93% 29.83 in
(1010 mb)
N 11.5 mph
(N 19 kph)
0.02 in
(0.51 mm)
7SM
12:15
Overcast
Light Rain
41°F / 5°C 41°F / 5°C 100% 29.83 in
(1010 mb)
NNW 12.7 mph
(NNW 20 kph)
0.01 in
(0.25 mm)
3SM
11:55
Overcast
Light Rain
43°F / 6°C 41°F / 5°C 93% 29.8 in
(1009 mb)
N 10.4 mph
(N 17 kph)
0.07 in
(1.78 mm)
5SM
11:35
Overcast
Rain
43°F / 6°C 41°F / 5°C 93% 29.8 in
(1009 mb)
N 13.8 mph
(N 22 kph)
0.05 in
(1.27 mm)
2 1/2SM
11:15
Overcast
Rain
43°F / 6°C 41°F / 5°C 93% 29.83 in
(1010 mb)
N 8.1 mph
(N 13 kph)
0.02 in
(0.51 mm)
1 3/4SM
10:55
Overcast
Rain
43°F / 6°C 41°F / 5°C 93% 29.83 in
(1010 mb)
NNW 12.7 mph
(NNW 20 kph)
0.05 in
(1.27 mm)
3SM
10:35
Overcast
Rain
43°F / 6°C 43°F / 6°C 100% 29.8 in
(1009 mb)
N 9.2 mph
(N 15 kph)
0.03 in
(0.76 mm)
2SM
10:15
Overcast
Rain
43°F / 6°C 43°F / 6°C 100% 29.8 in
(1009 mb)
NNW 8.1 mph
(NNW 13 kph)
0.01 in
(0.25 mm)
3SM
09:55
Heavy Rain
43°F / 6°C 43°F / 6°C 100% 29.8 in
(1009 mb)
N 8.1 mph
(N 13 kph)
-
09:35
Overcast
Drizzle
43°F / 6°C 43°F / 6°C 100% 29.8 in
(1009 mb)
N 8.1 mph
(N 13 kph)
- 4SM
09:15
Overcast
Drizzle
43°F / 6°C 43°F / 6°C 100% 29.77 in
(1008 mb)
N 10.4 mph
(N 17 kph)
- 3SM
08:55
Overcast
Drizzle
45°F / 7°C 43°F / 6°C 93% 29.77 in
(1008 mb)
NNW 10.4 mph
(NNW 17 kph)
- 5SM
08:35
Overcast
45°F / 7°C 41°F / 5°C 87% 29.77 in
(1008 mb)
NNW 11.5 mph
(NNW 19 kph)
- 10SM
08:15
Overcast
45°F / 7°C 41°F / 5°C 87% 29.77 in
(1008 mb)
N 10.4 mph
(N 17 kph)
- 10SM
07:55
Overcast
46°F / 8°C 39°F / 4°C 76% 29.77 in
(1008 mb)
N 10.4 mph
(N 17 kph)
- 10SM
07:35
Overcast
46°F / 8°C 39°F / 4°C 76% 29.77 in
(1008 mb)
N 10.4 mph
(N 17 kph)
- 10SM
07:15
Overcast
46°F / 8°C 39°F / 4°C 76% 29.77 in
(1008 mb)
N 8.1 mph
(N 13 kph)
- 10SM
06:55
Overcast
Drizzle
46°F / 8°C 41°F / 5°C 82% 29.77 in
(1008 mb)
N 6.9 mph
(N 11 kph)
- 10SM
06:35
Overcast
46°F / 8°C 39°F / 4°C 76% 29.77 in
(1008 mb)
N 6.9 mph
(N 11 kph)
- 10SM
06:15
Overcast
46°F / 8°C 41°F / 5°C 82% 29.77 in
(1008 mb)
NNW 10.4 mph
(NNW 17 kph)
- 10SM
05:55
Overcast
46°F / 8°C 39°F / 4°C 76% 29.74 in
(1007 mb)
N 15 mph
(N 24 kph)
- 10SM
05:35
Overcast
46°F / 8°C 41°F / 5°C 82% 29.74 in
(1007 mb)
NNW 17.3 mph
(NNW 28 kph)
- 10SM
05:15
Overcast
48°F / 9°C 41°F / 5°C 76% 29.74 in
(1007 mb)
N 15 mph
(N 24 kph)
- 10SM
04:55
Overcast
48°F / 9°C 43°F / 6°C 82% 29.74 in
(1007 mb)
NNW 16.1 mph
(NNW 26 kph)
- 10SM
04:35
Overcast
50°F / 10°C 43°F / 6°C 76% 29.71 in
(1006 mb)
NNW 17.3 mph
(NNW 28 kph)
- 10SM
04:15
Overcast
52°F / 11°C 45°F / 7°C 77% 29.71 in
(1006 mb)
NNW 16.1 mph
(NNW 26 kph)
- 10SM
03:55
Overcast
54°F / 12°C 46°F / 8°C 77% 29.71 in
(1006 mb)
NW 20.7 mph
(NW 33 kph)
- 10SM
03:35
Mostly Cloudy
59°F / 15°C 57°F / 14°C 94% 29.68 in
(1005 mb)
NW 6.9 mph
(NW 11 kph)
- 10SM
03:15
Partly Cloudy
61°F / 16°C 57°F / 14°C 88% 29.68 in
(1005 mb)
Calm - 10SM
02:55
Partly Cloudy
63°F / 17°C 57°F / 14°C 83% 29.68 in
(1005 mb)
SSE 3.5 mph
(SSE 6 kph)
- 10SM
02:35
Partly Cloudy
63°F / 17°C 57°F / 14°C 83% 29.68 in
(1005 mb)
Calm - 10SM
02:15
Mostly Cloudy
63°F / 17°C 57°F / 14°C 83% 29.68 in
(1005 mb)
SSE 3.5 mph
(SSE 6 kph)
- 10SM
01:55
Mostly Cloudy
63°F / 17°C 57°F / 14°C 83% 29.68 in
(1005 mb)
SSE 3.5 mph
(SSE 6 kph)
- 10SM
01:35
Partly Cloudy
63°F / 17°C 57°F / 14°C 83% 29.71 in
(1006 mb)
SSE 4.6 mph
(SSE 7 kph)
- 10SM
01:15
Partly Cloudy
63°F / 17°C 57°F / 14°C 83% 29.71 in
(1006 mb)
SSE 3.5 mph
(SSE 6 kph)
- 10SM
00:55
Mostly Cloudy
63°F / 17°C 57°F / 14°C 83% 29.71 in
(1006 mb)
SSE 3.5 mph
(SSE 6 kph)
- 10SM
00:35
Partly Cloudy
63°F / 17°C 57°F / 14°C 83% 29.71 in
(1006 mb)
SSE 3.5 mph
(SSE 6 kph)
- 10SM
00:15
Partly Cloudy
63°F / 17°C 57°F / 14°C 83% 29.71 in
(1006 mb)
SSE 5.8 mph
(SSE 9 kph)
- 10SM
Time Weather Temperature Dewpoint Humidity Pressure Winds Precip Visibility


Weather for websites

WeatherForYou.com, LLC is not responsible for any damages or problems caused by this service. Current weather conditions are obtained from the closest station including government and personal stations which may have varying degrees of accuracy. Weather forecasts are derived from the NOAA NDFD. Like all things, this site belongs to Jesus Christ... He just trusts me to maintain it. If you have any questions or comments email webmaster@weatherforyou.com

Copyright © 2015, WeatherForYou.com LLC. All rights reserved.